User: anonymous   Login
Location: Nashville
(36.1660°N, 86.7840°W)
Time: 18:48:35
(UTC-05:00)
Language:

ITUPSAT 1 - Orbit

View from above orbital plane
View from above orbital plane
View from above satellite
View from above satellite

Ground track
Ground track

The orbit data is extracted from the following two-line orbital elements,

1 35935U 09051E   22267.58039087  .00000488  00000-0  12178-3 0  9991
2 35935  98.5594 127.8238 0009021 115.0304 245.1831 14.56073146690336
Epoch (UTC): 24 September 2022 13:55:45
Eccentricity: 0.0009021
inclination: 98.5594°
perigee height: 699 km
apogee height: 712 km
right ascension of ascending node: 127.8238°
argument of perigee: 115.0304°
revolutions per day: 14.56073146
mean anomaly at epoch: 245.1831°
orbit number at epoch: 69033

The dashed part of the orbit path shows where the satellite is in the earth's shadow,  

DLR